GFSMW_925_temp_132.txt.gz
Temp
4 3 2 1 1 0 -0 -1 -1 -0 -0 -0 -0 1 2 2 3 3 4 5 7 7 8 9 10 12 12 12 14 14 15 15 16 16 16 16 17 16 19 18 18 18 18
3 3 1 0 -0 -1 -1 -1 -1 -1 -1 -1 -1 -1 -1 1 1 2 2 2 3 4 5 6 7 10 10 11 13 14 15 15 15 16 17 17 16 15 16 17 17 18 18
1 1 1 -0 -1 -2 -2 -1 -1 -0 -1 -2 -2 -2 -2 -1 -1 -1 -0 1 0 2 4 5 5 7 8 9 11 13 14 15 15 15 16 16 17 16 16 15 16 17 17
1 1 -0 -1 -2 -2 -1 -1 -1 -1 -2 -2 -2 -2 -1 -1 -1 -2 -1 -1 0 0 2 3 4 4 6 7 9 12 14 14 15 16 15 16 15 15 15 15 15 16 17
-0 -1 -1 -2 -2 -2 -1 -2 -1 -2 -2 -2 -2 -2 -2 -2 -1 -1 -1 -0 0 -0 1 2 3 3 4 5 6 9 11 14 15 15 15 14 14 15 15 15 15 15 15
-1 -1 -2 -1 -1 -2 -2 -3 -2 -2 -2 -3 -2 -2 -2 -1 -1 -1 -0 0 1 1 1 2 3 3 3 4 6 8 10 11 13 14 15 15 15 16 15 16 15 16 16
-2 -3 -2 -2 -2 -3 -3 -4 -3 -3 -4 -4 -3 -3 -3 -2 -2 -1 -0 0 1 1 1 2 2 3 3 3 4 5 8 10 13 14 15 15 15 15 16 16 17 16 16
-2 -3 -2 -3 -3 -4 -4 -4 -4 -4 -4 -4 -4 -4 -3 -3 -2 -1 -1 -0 0 1 2 2 2 3 3 3 3 4 5 8 8 11 14 15 15 15 15 15 15 15 14
-3 -3 -2 -4 -4 -4 -5 -5 -5 -5 -5 -5 -4 -4 -4 -3 -3 -2 -2 -1 -1 0 1 1 2 3 3 4 4 4 5 7 8 10 12 14 14 14 15 16 16 15 13
-3 -4 -4 -4 -4 -5 -5 -5 -5 -5 -5 -5 -5 -5 -5 -4 -3 -3 -3 -2 -2 -1 -1 -0 1 2 5 4 4 5 5 6 7 8 10 12 13 14 15 16 14 14 14
-5 -5 -5 -4 -5 -5 -5 -5 -5 -6 -6 -6 -6 -6 -5 -5 -5 -5 -4 -4 -3 -2 -2 -1 -1 -0 2 3 5 5 6 7 7 8 10 12 13 13 14 14 13 13 13
-4 -5 -5 -5 -5 -5 -5 -6 -6 -6 -6 -6 -6 -6 -6 -6 -5 -6 -6 -5 -4 -3 -3 -2 -2 -2 -1 1 2 4 6 8 8 8 9 11 12 13 13 13 13 13 13
-4 -6 -5 -5 -5 -5 -6 -6 -6 -6 -7 -7 -7 -7 -7 -7 -7 -6 -6 -6 -5 -4 -3 -3 -3 -3 -2 -2 -1 0 1 1 2 3 4 4 8 11 11 12 12 13 13
-4 -5 -5 -5 -5 -5 -6 -6 -6 -6 -7 -8 -8 -8 -8 -8 -7 -7 -7 -7 -6 -5 -4 -4 -3 -3 -3 -3 -3 -3 -2 -1 -1 -1 -0 -0 0 2 5 8 10 12 12
-3 -4 -5 -5 -5 -5 -6 -6 -6 -7 -7 -8 -8 -9 -9 -9 -9 -8 -8 -7 -7 -6 -5 -5 -5 -4 -4 -4 -4 -4 -4 -4 -3 -3 -3 -2 -1 -2 -2 -0 1 5 8
-3 -3 -4 -4 -5 -5 -6 -6 -7 -7 -7 -8 -9 -8 -9 -9 -9 -9 -9 -9 -8 -7 -7 -6 -6 -5 -5 -5 -5 -5 -5 -5 -5 -5 -4 -4 -3 -3 -3 -4 -3 -2 -0
-3 -3 -4 -5 -6 -6 -6 -7 -7 -7 -8 -8 -8 -9 -9 -9 -9 -10 -9 -9 -9 -8 -8 -8 -7 -6 -6 -5 -6 -6 -7 -6 -6 -6 -6 -5 -5 -4 -4 -4 -4 -4 -3
-3 -4 -5 -6 -6 -6 -6 -6 -7 -7 -8 -8 -9 -9 -9 -9 -9 -9 -10 -10 -10 -9 -9 -9 -9 -7 -7 -7 -7 -7 -8 -8 -7 -6 -7 -6 -6 -6 -5 -5 -5 -5 -5
-6 -7 -6 -6 -6 -6 -6 -7 -7 -8 -8 -9 -9 -9 -9 -10 -10 -10 -10 -10 -10 -10 -10 -10 -9 -9 -8 -7 -8 -9 -9 -9 -9 -9 -7 -7 -7 -7 -7 -6 -6 -6 -6
-6 -6 -6 -6 -6 -6 -6 -7 -8 -8 -9 -9 -8 -8 -9 -9 -10 -10 -10 -10 -10 -10 -11 -11 -11 -10 -9 -8 -9 -9 -10 -10 -10 -10 -10 -8 -8 -8 -8 -9 -8 -8 -8
-7 -6 -6 -6 -6 -6 -6 -7 -7 -8 -8 -8 -8 -8 -9 -9 -9 -10 -10 -10 -10 -10 -11 -11 -11 -11 -10 -10 -9 -10 -11 -12 -12 -11 -12 -11 -10 -10 -10 -10 -10 -10 -9
-7 -7 -7 -7 -6 -6 -6 -7 -8 -8 -8 -8 -8 -9 -9 -9 -9 -9 -10 -10 -10 -10 -11 -11 -11 -11 -12 -11 -10 -11 -12 -12 -13 -13 -13 -12 -12 -12 -11 -12 -12 -10 -10
-7 -7 -7 -7 -7 -6 -6 -7 -8 -7 -8 -8 -9 -9 -9 -9 -9 -9 -10 -11 -11 -11 -11 -11 -12 -12 -12 -12 -12 -12 -13 -13 -14 -14 -14 -13 -14 -14 -13 -14 -14 -12 -13
-8 -8 -7 -8 -8 -7 -7 -7 -8 -7 -8 -8 -9 -9 -9 -9 -10 -10 -9 -10 -10 -11 -11 -11 -12 -12 -12 -12 -12 -13 -13 -12 -13 -13 -14 -14 -15 -15 -15 -14 -14 -14 -15
-8 -8 -8 -8 -8 -7 -7 -8 -8 -8 -8 -8 -9 -9 -9 -10 -10 -10 -10 -10 -9 -9 -10 -11 -11 -12 -12 -11 -11 -12 -13 -14 -15 -15 -15 -16 -16 -17 -17 -17 -17 -16 -16
-7 -8 -8 -8 -8 -8 -8 -8 -8 -8 -8 -9 -9 -9 -10 -10 -10 -10 -11 -11 -10 -10 -10 -10 -11 -11 -11 -11 -12 -12 -13 -14 -15 -16 -17 -17 -17 -18 -18 -18 -18 -18 -18

GFSMW_925_temp_135.txt.gz
Temp
5 4 3 2 1 1 1 1 1 1 1 1 1 2 2 2 3 2 2 2 2 3 5 5 6 7 8 9 10 12 13 13 13 15 16 16 16 16 16 17 18 18 17
6 4 3 2 1 0 0 1 1 1 0 0 0 -0 0 1 1 1 1 1 1 1 2 3 4 5 7 7 9 11 13 14 14 16 17 18 16 15 15 15 16 17 18
5 4 2 1 1 0 0 0 -0 -0 -0 -0 0 0 1 1 1 1 1 1 1 1 1 2 3 4 5 6 7 9 11 13 14 14 17 18 19 19 16 15 15 16 17
4 3 2 1 0 0 -0 -1 -1 -1 -1 -1 -1 -1 -1 -0 0 -0 0 0 0 1 1 1 2 3 4 5 6 7 9 10 13 15 15 16 18 17 18 16 15 16 17
3 2 1 0 0 -0 -1 -2 -1 -1 -2 -2 -2 -2 -1 -1 -1 -0 -0 -0 0 1 1 1 2 3 3 4 5 6 7 9 10 13 16 15 15 16 14 15 16 15 16
3 1 0 -0 -0 -1 -2 -2 -2 -2 -3 -3 -3 -3 -3 -2 -1 -1 -1 -0 0 1 2 2 2 3 3 3 3 4 5 7 9 10 13 16 16 16 15 14 14 15 16
2 2 1 -0 -1 -1 -2 -3 -3 -3 -3 -3 -3 -4 -3 -3 -2 -2 -1 -1 -1 0 1 1 2 2 3 3 3 3 4 5 6 8 10 14 16 16 16 15 15 14 15
2 1 0 -1 -1 -2 -2 -3 -4 -4 -4 -4 -4 -4 -4 -3 -3 -3 -2 -2 -2 -1 -0 0 1 1 2 3 3 3 3 4 5 7 7 9 13 15 15 15 15 14 15
1 1 -1 -2 -2 -3 -3 -4 -4 -4 -4 -5 -5 -4 -4 -4 -4 -4 -4 -3 -3 -2 -1 -1 -0 1 1 3 3 3 4 4 5 7 8 9 11 14 15 15 15 15 15
0 -0 -2 -3 -3 -3 -4 -4 -4 -5 -5 -5 -5 -5 -5 -5 -5 -5 -5 -5 -4 -3 -2 -2 -1 -1 1 2 4 3 4 5 6 6 8 9 10 12 13 14 15 14 15
-1 -2 -3 -4 -5 -5 -5 -5 -5 -6 -6 -5 -6 -6 -6 -6 -6 -6 -6 -5 -4 -3 -3 -2 -2 -2 -1 1 2 4 5 5 6 7 8 9 10 11 11 13 14 14 13
-1 -3 -4 -5 -5 -5 -5 -6 -6 -6 -7 -6 -7 -7 -7 -7 -7 -7 -7 -6 -5 -4 -4 -3 -3 -3 -2 -2 -1 -0 0 1 1 1 2 2 6 8 11 12 13 13 14
-1 -2 -3 -4 -5 -5 -6 -6 -6 -7 -7 -7 -8 -8 -8 -8 -7 -7 -7 -6 -6 -5 -5 -4 -4 -4 -4 -3 -3 -2 -2 -2 -2 -2 -0 -1 -0 1 3 6 8 11 13
-1 -2 -3 -4 -4 -5 -6 -6 -7 -7 -8 -7 -8 -9 -9 -8 -8 -8 -8 -7 -7 -7 -6 -5 -4 -5 -5 -5 -4 -4 -4 -3 -3 -3 -3 -2 -3 -2 -1 -1 1 4 7
-1 -2 -3 -3 -4 -4 -5 -6 -7 -7 -7 -8 -8 -9 -9 -9 -8 -8 -8 -8 -8 -8 -7 -6 -6 -5 -5 -5 -6 -5 -5 -5 -5 -5 -4 -4 -3 -3 -4 -3 -3 -1 2
-1 -2 -2 -3 -4 -4 -5 -6 -6 -7 -7 -8 -9 -9 -9 -8 -9 -9 -9 -9 -8 -8 -8 -7 -7 -7 -6 -6 -6 -7 -6 -6 -6 -6 -5 -5 -5 -4 -5 -5 -5 -5 -4
-1 -2 -3 -3 -4 -5 -5 -6 -6 -7 -7 -8 -9 -9 -9 -9 -10 -9 -9 -9 -9 -9 -9 -9 -8 -7 -7 -7 -7 -8 -8 -7 -7 -7 -7 -6 -6 -6 -6 -5 -6 -6 -5
-1 -2 -3 -5 -5 -5 -6 -6 -6 -7 -7 -8 -8 -9 -9 -9 -10 -10 -10 -10 -10 -10 -10 -9 -10 -8 -8 -8 -8 -9 -9 -9 -9 -8 -8 -8 -7 -7 -6 -6 -6 -7 -7
-3 -5 -6 -6 -6 -6 -6 -7 -7 -7 -7 -8 -8 -8 -9 -9 -9 -10 -10 -10 -10 -10 -10 -11 -10 -10 -9 -9 -10 -9 -9 -10 -10 -10 -8 -9 -9 -8 -8 -7 -8 -8 -7
-6 -6 -6 -6 -6 -7 -7 -7 -8 -9 -9 -9 -9 -9 -9 -9 -10 -10 -9 -10 -10 -10 -10 -11 -11 -10 -10 -9 -10 -11 -10 -10 -11 -11 -11 -10 -10 -10 -10 -10 -10 -10 -9
-7 -7 -6 -6 -6 -7 -7 -8 -8 -9 -9 -9 -9 -10 -9 -10 -10 -10 -10 -9 -10 -10 -10 -10 -11 -11 -11 -10 -10 -11 -12 -12 -11 -12 -12 -12 -11 -11 -12 -12 -12 -12 -11
-7 -7 -7 -7 -7 -7 -7 -8 -8 -9 -8 -8 -9 -9 -9 -9 -9 -11 -10 -10 -10 -10 -10 -10 -10 -10 -11 -11 -11 -12 -12 -13 -13 -13 -13 -13 -13 -13 -13 -13 -13 -13 -12
-7 -7 -7 -8 -7 -7 -7 -8 -8 -8 -8 -9 -9 -9 -9 -9 -10 -10 -10 -9 -10 -10 -10 -10 -10 -10 -10 -11 -12 -12 -13 -14 -14 -14 -14 -14 -14 -15 -15 -14 -15 -14 -14
-7 -8 -8 -8 -8 -8 -7 -8 -8 -8 -8 -9 -9 -9 -10 -10 -10 -9 -9 -9 -9 -10 -10 -10 -10 -10 -11 -11 -11 -12 -13 -14 -14 -14 -14 -15 -15 -15 -15 -15 -15 -16 -16
-7 -7 -7 -7 -8 -8 -8 -8 -8 -8 -9 -9 -10 -10 -10 -10 -10 -10 -9 -9 -9 -9 -10 -10 -10 -10 -11 -11 -12 -12 -13 -14 -15 -14 -14 -14 -14 -15 -15 -15 -16 -16 -16
-6 -6 -7 -7 -8 -8 -8 -8 -8 -8 -9 -9 -9 -10 -10 -10 -10 -10 -10 -11 -10 -10 -10 -10 -10 -11 -11 -11 -12 -13 -13 -14 -14 -14 -14 -15 -15 -15 -15 -15 -16 -16 -17

GFSMW_925_temp_138.txt.gz
Temp
11 10 8 8 7 7 6 6 6 5 5 6 6 6 7 7 7 6 6 5 5 5 5 7 8 9 10 11 12 14 14 14 15 14 14 15 15 16 16 17 18 19 19
13 10 9 8 7 6 6 5 5 5 5 5 4 5 5 6 6 6 6 5 5 4 5 5 6 7 8 9 10 11 13 15 16 16 16 18 18 17 16 17 18 19 19
11 11 9 8 7 6 5 4 4 4 4 3 4 4 4 5 6 6 5 5 4 3 3 4 5 5 6 8 9 10 12 14 16 16 18 19 20 22 20 18 18 18 18
11 10 8 8 6 5 4 3 3 3 3 2 2 2 2 3 3 3 3 3 2 2 2 2 3 4 5 7 8 9 10 11 14 15 16 17 20 21 22 20 19 18 18
10 9 7 6 6 5 4 3 3 3 2 1 1 1 1 1 1 1 1 1 2 2 2 2 2 2 3 4 6 7 8 10 12 13 14 15 16 18 19 19 20 17 17
9 8 7 6 6 5 4 3 2 2 1 1 -0 -1 -1 -1 -1 -0 -0 0 0 1 1 1 2 2 2 3 4 4 5 6 9 11 12 12 13 17 18 18 20 19 18
9 8 8 7 5 4 3 3 2 2 1 -0 -1 -1 -2 -2 -2 -1 -1 -1 -1 -0 -1 -0 0 1 1 2 3 4 4 4 5 7 8 9 10 11 16 18 19 19 17
8 8 6 5 4 3 3 2 1 1 -0 -1 -1 -2 -2 -3 -3 -3 -2 -2 -2 -2 -2 -1 -1 0 1 2 2 3 3 4 4 5 6 7 9 10 10 15 18 18 18
8 7 5 4 3 3 2 1 1 0 -1 -1 -2 -2 -3 -4 -4 -4 -3 -3 -3 -2 -2 -2 -2 -1 -0 1 2 2 3 4 4 4 6 8 9 10 12 13 14 17 17
7 5 4 2 2 1 1 -1 -2 -2 -2 -2 -2 -3 -4 -4 -5 -4 -4 -4 -4 -3 -3 -3 -2 -2 -1 -0 2 4 4 4 5 5 6 8 9 11 12 12 13 14 15
5 2 -0 1 -1 -2 -2 -3 -4 -4 -3 -3 -3 -4 -5 -6 -6 -5 -5 -4 -4 -5 -4 -4 -3 -3 -2 -2 -1 0 3 2 2 3 3 5 7 9 12 11 11 13 15
5 2 -2 -3 -3 -4 -4 -5 -5 -5 -5 -4 -4 -5 -6 -6 -6 -6 -6 -5 -5 -5 -5 -4 -4 -4 -4 -3 -3 -2 -2 -1 -1 -1 -0 0 3 4 5 6 7 10 12
5 3 -0 -2 -3 -3 -4 -5 -6 -6 -6 -6 -6 -6 -6 -6 -7 -6 -6 -6 -6 -5 -5 -5 -5 -5 -5 -5 -4 -4 -3 -3 -3 -2 -2 -2 -1 0 1 2 3 5 8
4 3 2 -0 -2 -4 -5 -5 -6 -6 -7 -7 -7 -7 -7 -7 -7 -6 -6 -6 -6 -6 -5 -5 -5 -5 -6 -5 -5 -5 -5 -5 -5 -4 -4 -3 -3 -3 -2 -1 -0 2 4
4 3 2 0 -1 -2 -3 -4 -5 -6 -7 -7 -7 -7 -7 -7 -7 -6 -6 -6 -7 -7 -6 -6 -6 -6 -6 -6 -6 -5 -6 -5 -5 -5 -5 -5 -4 -4 -4 -3 -2 -1 -0
4 2 1 1 0 -1 -2 -3 -4 -6 -6 -7 -8 -8 -8 -8 -7 -7 -7 -7 -7 -7 -7 -7 -7 -7 -7 -7 -7 -7 -6 -6 -6 -6 -5 -6 -5 -5 -5 -5 -5 -5 -3
4 3 2 1 -0 -1 -2 -3 -4 -5 -5 -7 -8 -8 -8 -8 -8 -8 -8 -7 -8 -8 -8 -8 -7 -8 -8 -7 -7 -7 -8 -7 -7 -7 -7 -7 -7 -5 -4 -5 -6 -6 -6
3 3 1 0 -1 -1 -2 -3 -3 -4 -5 -5 -6 -8 -8 -8 -8 -8 -8 -8 -7 -8 -8 -8 -8 -8 -8 -8 -8 -8 -8 -8 -9 -9 -9 -8 -8 -8 -6 -5 -6 -6 -7
2 -0 -1 -2 -2 -2 -3 -3 -3 -4 -4 -5 -5 -6 -7 -8 -8 -8 -8 -8 -8 -8 -8 -9 -9 -9 -9 -9 -9 -7 -7 -8 -9 -9 -10 -10 -10 -9 -8 -7 -7 -6 -7
-2 -3 -3 -3 -4 -4 -5 -5 -5 -6 -6 -7 -6 -6 -6 -7 -7 -7 -7 -8 -7 -8 -8 -8 -9 -9 -10 -10 -10 -9 -7 -8 -8 -9 -10 -11 -10 -10 -10 -10 -9 -8 -7
-4 -5 -5 -5 -6 -6 -6 -7 -8 -8 -8 -8 -8 -8 -7 -8 -7 -7 -7 -7 -7 -7 -7 -7 -8 -9 -10 -10 -11 -11 -10 -9 -9 -10 -10 -11 -11 -11 -11 -11 -11 -10 -9
-5 -5 -6 -6 -7 -7 -7 -7 -8 -9 -9 -9 -9 -9 -8 -8 -8 -7 -7 -7 -6 -6 -7 -7 -7 -7 -8 -10 -11 -11 -12 -11 -10 -11 -11 -12 -12 -12 -12 -12 -12 -11 -10
-4 -5 -6 -7 -7 -7 -7 -7 -9 -9 -9 -9 -9 -9 -9 -8 -7 -7 -7 -6 -7 -6 -6 -6 -7 -8 -8 -9 -10 -11 -12 -12 -11 -12 -12 -12 -12 -12 -12 -12 -12 -12 -11
-4 -5 -6 -7 -7 -7 -7 -8 -9 -9 -9 -9 -9 -8 -8 -8 -7 -7 -7 -6 -6 -7 -7 -7 -7 -8 -9 -10 -10 -10 -11 -12 -11 -11 -11 -11 -11 -11 -11 -12 -12 -12 -12
-3 -4 -4 -5 -6 -7 -7 -8 -9 -8 -8 -8 -8 -7 -8 -7 -8 -8 -8 -8 -9 -8 -7 -8 -8 -8 -9 -11 -11 -11 -12 -12 -12 -10 -10 -10 -10 -11 -11 -11 -12 -12 -12
-3 -3 -3 -4 -5 -6 -6 -7 -7 -7 -7 -7 -7 -7 -7 -7 -7 -7 -8 -10 -10 -10 -10 -10 -10 -10 -11 -11 -12 -12 -12 -12 -11 -10 -10 -11 -11 -11 -11 -12 -12 -12 -13

GFSMW_925_temp_141.txt.gz
Temp
16 14 12 12 12 11 10 9 9 9 8 9 9 9 10 10 10 10 9 9 8 8 7 8 8 9 10 11 12 13 14 16 17 18 18 17 17 16 16 16 17 18 18
17 14 13 12 11 11 9 9 8 8 8 7 7 7 7 8 8 9 9 8 8 7 6 7 7 8 9 9 10 11 12 14 16 17 19 19 20 18 16 16 16 17 17
17 15 13 12 11 10 9 8 8 7 7 6 6 6 6 7 7 7 6 6 5 5 5 4 4 4 5 7 9 10 11 13 14 16 18 19 19 22 19 18 17 17 17
15 15 13 12 11 9 8 7 7 7 6 5 5 4 5 5 4 4 4 3 3 3 3 2 2 3 3 4 5 7 9 11 13 14 16 17 18 18 20 22 19 19 18
15 14 12 11 10 9 8 7 7 7 6 4 4 3 3 3 2 2 1 1 1 1 1 1 1 1 2 3 3 4 5 6 8 12 14 16 17 17 17 18 20 20 19
15 13 11 10 10 9 8 7 7 6 5 4 3 2 2 1 0 0 -0 -0 -0 0 0 0 -0 1 1 2 3 3 4 4 6 8 10 13 16 16 16 17 19 19 19
14 13 12 11 9 8 7 7 6 6 4 3 3 2 1 -0 -1 -1 -1 -1 -1 -1 -1 -1 -1 -0 0 1 2 2 3 4 5 6 7 9 9 10 10 12 14 18 19
13 13 11 10 9 8 7 6 5 5 3 2 2 1 -0 -1 -2 -2 -2 -2 -2 -2 -2 -2 -2 -2 -1 -0 1 2 3 3 4 5 5 6 7 8 9 10 12 15 16
14 13 10 9 8 7 6 4 4 3 2 2 1 0 -1 -2 -3 -3 -3 -3 -3 -3 -3 -2 -2 -2 -2 -1 -0 1 2 3 4 4 5 5 6 7 9 10 12 12 14
13 11 9 7 6 5 4 2 1 1 1 1 0 -1 -2 -3 -4 -4 -4 -4 -3 -3 -3 -3 -4 -3 -3 -2 -1 -0 4 3 3 4 5 5 6 8 9 11 12 13 14
12 9 6 5 3 2 1 -1 -2 -1 -1 -0 -1 -3 -4 -4 -4 -4 -4 -5 -4 -4 -4 -4 -4 -4 -4 -3 -2 -2 -1 -0 -0 0 1 2 3 6 8 10 11 12 13
11 7 -0 -1 -2 -3 -3 -3 -3 -3 -3 -3 -3 -4 -4 -5 -5 -5 -4 -5 -5 -5 -4 -4 -5 -5 -4 -4 -4 -4 -3 -3 -2 -2 -2 -2 -0 1 3 4 6 8 10
10 7 2 -1 -2 -1 -4 -4 -4 -5 -5 -5 -5 -5 -5 -5 -5 -5 -4 -4 -5 -4 -5 -5 -5 -5 -5 -4 -5 -4 -4 -4 -4 -4 -3 -3 -3 -2 -1 1 3 5 8
10 8 5 3 1 -2 -3 -4 -4 -5 -6 -6 -5 -6 -6 -5 -5 -5 -4 -4 -5 -4 -4 -5 -5 -6 -6 -5 -5 -5 -5 -4 -5 -5 -4 -4 -4 -4 -3 -3 -1 1 4
10 7 6 4 2 1 -0 -1 -3 -5 -6 -6 -6 -6 -6 -6 -5 -5 -5 -5 -5 -6 -5 -5 -5 -5 -6 -6 -6 -6 -6 -6 -6 -6 -6 -5 -4 -4 -4 -4 -4 -2 -1
9 7 6 4 4 2 1 -0 -2 -4 -5 -6 -7 -7 -7 -6 -6 -6 -5 -6 -6 -6 -7 -6 -7 -7 -6 -6 -6 -7 -7 -7 -7 -7 -7 -7 -6 -4 -4 -5 -5 -5 -4
8 7 6 5 4 3 1 1 -2 -3 -3 -5 -6 -7 -7 -7 -7 -6 -6 -6 -6 -6 -7 -7 -7 -8 -7 -6 -6 -7 -7 -8 -9 -9 -8 -8 -8 -6 -5 -5 -5 -5 -5
8 7 5 4 3 3 2 1 0 -1 -2 -3 -4 -6 -7 -7 -7 -6 -6 -6 -6 -6 -7 -8 -8 -8 -8 -7 -6 -6 -7 -8 -9 -9 -10 -9 -9 -8 -7 -6 -5 -6 -6
7 5 4 3 3 2 1 0 -0 -0 -2 -2 -3 -3 -6 -6 -6 -6 -6 -6 -6 -6 -7 -8 -9 -9 -9 -9 -7 -6 -6 -7 -9 -10 -9 -10 -10 -9 -8 -8 -7 -6 -7
3 2 1 2 -0 -0 -1 -2 -2 -3 -4 -4 -4 -4 -4 -5 -6 -6 -6 -6 -6 -6 -6 -6 -8 -9 -9 -9 -9 -8 -7 -7 -8 -9 -10 -10 -10 -10 -10 -9 -8 -7 -7
-2 -2 -1 -3 -4 -4 -4 -5 -6 -6 -7 -7 -6 -6 -6 -6 -6 -5 -5 -5 -5 -5 -5 -5 -6 -7 -9 -9 -10 -10 -9 -8 -8 -9 -10 -10 -10 -10 -10 -10 -9 -8 -8
-3 -3 -4 -4 -5 -6 -6 -6 -7 -8 -8 -8 -7 -7 -7 -6 -6 -6 -5 -5 -4 -4 -4 -5 -5 -6 -7 -9 -9 -10 -10 -9 -9 -10 -10 -10 -10 -10 -10 -10 -10 -9 -9
-2 -4 -5 -5 -6 -6 -6 -6 -8 -8 -8 -8 -8 -7 -7 -6 -6 -5 -5 -4 -5 -4 -4 -4 -5 -6 -7 -8 -9 -9 -10 -9 -9 -9 -9 -9 -9 -9 -10 -10 -10 -10 -10
-1 -3 -5 -5 -6 -6 -6 -6 -8 -8 -8 -7 -7 -7 -6 -6 -6 -5 -6 -6 -5 -5 -5 -5 -6 -6 -8 -9 -10 -9 -9 -9 -9 -8 -8 -8 -8 -9 -9 -9 -10 -10 -10
-0 -1 -2 -3 -5 -5 -6 -7 -7 -7 -6 -6 -6 -6 -6 -6 -7 -8 -7 -7 -9 -9 -7 -8 -8 -8 -9 -10 -11 -11 -11 -10 -9 -8 -8 -8 -8 -8 -9 -9 -10 -10 -11
1 -0 -0 -1 -3 -4 -5 -6 -6 -6 -5 -5 -5 -4 -5 -5 -5 -6 -8 -10 -10 -10 -10 -10 -10 -10 -11 -12 -12 -11 -11 -11 -9 -8 -8 -8 -8 -8 -9 -9 -10 -10 -11

GFSMW_925_temp_144.txt.gz
Temp
17 15 14 13 13 12 11 10 10 9 9 8 7 8 8 8 8 8 9 8 7 7 6 6 6 6 7 7 8 9 10 11 12 14 16 17 18 17 16 16 15 16 17
17 15 15 13 12 11 10 9 9 9 8 7 7 7 7 7 7 7 6 6 5 4 3 4 4 4 4 4 5 6 8 10 11 13 14 14 17 18 18 16 16 16 16
18 16 15 13 12 11 10 9 8 8 7 6 6 5 5 6 5 4 4 3 2 2 2 2 2 2 3 3 4 4 5 7 9 12 13 14 15 16 20 17 16 16 16
17 16 15 13 12 10 9 9 8 8 7 6 5 4 4 4 3 2 1 1 0 0 1 1 1 0 1 1 2 4 4 5 6 7 12 13 14 14 14 19 17 16 16
17 16 14 13 12 10 9 8 8 8 6 5 4 3 3 2 1 1 0 -0 -1 -1 -0 -0 -1 -1 -0 0 1 2 3 4 4 6 8 8 12 14 14 14 16 17 18
16 15 13 12 12 10 9 8 8 7 5 4 4 3 2 1 0 -0 -1 -1 -1 -1 -1 -1 -1 -1 -1 -0 0 1 2 3 4 4 6 7 9 10 11 12 14 14 17
16 15 14 13 11 9 8 8 7 7 5 4 3 2 1 -0 -1 -2 -2 -2 -2 -2 -2 -2 -2 -2 -2 -1 -1 0 1 2 3 4 5 6 7 8 8 9 10 12 13
16 15 14 12 10 9 7 6 6 5 4 3 2 1 -0 -1 -2 -3 -3 -3 -3 -3 -3 -3 -3 -3 -2 -2 -1 -0 1 1 2 3 4 5 6 6 6 7 9 10 12
15 14 12 10 9 8 6 4 4 3 3 2 1 -0 -1 -2 -3 -3 -3 -4 -4 -4 -3 -4 -4 -3 -3 -3 -2 -1 -0 2 2 3 4 5 5 6 6 7 8 9 10
16 14 11 9 8 6 4 1 1 1 1 1 -0 -2 -3 -4 -4 -4 -4 -4 -4 -4 -4 -4 -4 -4 -4 -3 -3 -2 -2 -1 -0 0 2 2 3 5 5 6 8 9 10
14 11 9 7 5 2 1 -1 -1 -1 -1 -1 -2 -3 -4 -4 -4 -4 -4 -4 -4 -4 -4 -5 -5 -4 -4 -4 -4 -3 -4 -3 -3 -2 -2 -2 0 1 3 4 6 8 9
13 6 -0 1 -0 -2 -2 -2 -2 -3 -3 -3 -4 -4 -4 -5 -4 -4 -4 -4 -4 -4 -5 -5 -5 -5 -5 -4 -4 -4 -4 -4 -4 -3 -4 -3 -3 -2 -1 1 3 4 7
12 6 2 -1 -2 -1 -2 -3 -4 -4 -4 -5 -5 -5 -5 -5 -5 -5 -4 -5 -5 -5 -5 -5 -5 -6 -6 -5 -5 -5 -5 -5 -5 -5 -4 -4 -4 -4 -3 -3 -1 1 4
11 8 5 3 0 -1 -3 -3 -4 -5 -5 -5 -5 -6 -5 -5 -5 -5 -5 -5 -6 -6 -6 -6 -6 -5 -6 -6 -6 -7 -7 -6 -6 -6 -6 -4 -4 -4 -4 -4 -3 -2 -1
11 9 7 5 3 1 -1 -3 -4 -5 -5 -5 -6 -6 -6 -6 -5 -5 -5 -5 -6 -7 -7 -7 -7 -7 -6 -6 -7 -8 -8 -8 -8 -7 -7 -6 -4 -5 -5 -5 -5 -4 -3
11 9 8 6 4 3 2 0 -2 -4 -4 -6 -6 -6 -6 -6 -6 -5 -5 -6 -7 -7 -8 -8 -8 -7 -6 -5 -6 -8 -9 -9 -9 -9 -9 -8 -7 -5 -5 -5 -5 -5 -5
11 9 7 6 5 4 2 1 -2 -3 -4 -5 -6 -6 -6 -6 -6 -6 -6 -6 -7 -7 -8 -8 -9 -8 -7 -6 -6 -7 -9 -9 -9 -10 -10 -9 -8 -7 -6 -6 -6 -6 -6
10 9 7 6 4 3 3 1 -0 -2 -2 -3 -5 -6 -6 -6 -6 -6 -5 -6 -6 -7 -8 -8 -9 -9 -8 -7 -6 -7 -8 -9 -10 -9 -10 -9 -9 -8 -8 -7 -7 -7 -6
8 7 6 5 4 4 2 2 1 -0 -1 -2 -3 -4 -5 -6 -6 -6 -5 -5 -5 -6 -7 -7 -8 -9 -9 -8 -8 -7 -8 -8 -9 -10 -9 -9 -9 -8 -8 -8 -8 -8 -7
6 5 5 4 3 2 1 1 -0 -2 -3 -3 -4 -4 -4 -5 -5 -5 -5 -5 -5 -5 -6 -7 -7 -8 -9 -8 -8 -9 -9 -9 -9 -9 -9 -8 -9 -9 -9 -9 -9 -9 -8
1 2 2 -1 -1 -1 -2 -3 -4 -6 -6 -5 -5 -5 -5 -5 -5 -5 -4 -4 -4 -4 -5 -5 -6 -7 -8 -8 -8 -8 -9 -9 -9 -9 -9 -8 -8 -9 -9 -9 -9 -9 -9
-1 -1 -3 -3 -3 -3 -4 -6 -6 -7 -7 -7 -7 -6 -6 -5 -5 -5 -5 -4 -4 -4 -4 -5 -6 -8 -8 -8 -8 -8 -9 -8 -9 -9 -8 -8 -8 -9 -9 -10 -10 -10 -10
-2 -3 -4 -5 -5 -5 -5 -6 -7 -7 -7 -7 -7 -6 -6 -5 -5 -5 -5 -5 -4 -5 -5 -5 -6 -8 -9 -10 -10 -9 -9 -9 -8 -8 -8 -8 -8 -9 -9 -9 -10 -11 -10
-1 -3 -5 -5 -6 -6 -6 -6 -7 -7 -7 -7 -7 -6 -6 -6 -6 -6 -7 -7 -7 -6 -7 -7 -8 -9 -10 -11 -11 -10 -10 -9 -8 -8 -8 -8 -8 -9 -9 -9 -10 -11 -11
-0 -2 -3 -4 -5 -5 -6 -6 -7 -7 -7 -6 -6 -6 -6 -6 -7 -8 -8 -9 -9 -9 -9 -9 -10 -11 -11 -11 -10 -10 -10 -9 -8 -8 -9 -9 -9 -9 -9 -10 -10 -11 -11
1 -0 -1 -2 -3 -4 -5 -6 -7 -6 -6 -5 -5 -5 -5 -6 -7 -8 -9 -9 -10 -10 -10 -11 -11 -11 -11 -11 -11 -10 -9 -9 -9 -9 -10 -10 -10 -10 -10 -11 -11 -11 -12

GFSMW_925_temp_150.txt.gz
Temp
11 12 11 10 10 9 9 8 8 7 8 8 8 7 5 4 4 3 2 1 0 -0 -1 -1 -1 -0 -0 0 1 2 2 3 3 4 7 7 9 12 13 15 15 15 16
10 10 10 10 10 9 8 8 7 7 7 6 5 4 4 3 2 2 1 1 0 -1 -1 -1 -1 -1 -1 -1 -0 0 1 2 3 4 5 7 11 12 14 15 15 16 16
11 10 9 9 9 9 8 8 7 6 6 5 5 4 3 2 0 -0 -0 -1 -1 -2 -2 -2 -2 -2 -2 -1 -1 -1 -0 1 2 3 5 7 9 9 13 13 14 15 14
12 10 9 8 9 8 8 7 6 6 5 4 4 2 0 -1 -1 -1 -1 -2 -2 -3 -3 -3 -3 -3 -3 -2 -2 -1 -1 -1 1 2 3 4 6 8 9 11 12 14 14
11 9 8 9 8 8 8 7 6 5 4 3 2 2 0 -1 -2 -2 -3 -3 -3 -3 -4 -3 -4 -4 -3 -3 -2 -2 -2 -1 -0 0 2 3 4 5 7 9 11 12 13
9 8 9 8 8 8 7 6 5 4 3 3 2 1 -1 -2 -3 -3 -3 -4 -4 -4 -4 -4 -4 -4 -4 -3 -3 -2 -2 -1 -1 0 1 2 4 6 6 8 9 8 10
9 8 6 6 7 7 6 5 4 3 2 2 1 -0 -1 -3 -3 -4 -4 -4 -4 -4 -4 -5 -5 -4 -4 -3 -3 -2 -2 -2 -1 -0 0 2 3 3 5 6 7 7 8
9 8 7 6 6 5 5 4 3 2 1 1 -0 -1 -2 -3 -4 -4 -4 -4 -4 -4 -4 -5 -5 -5 -4 -4 -3 -3 -3 -2 -2 -0 1 1 2 3 4 5 6 6 7
9 7 6 5 5 4 4 4 3 1 0 -0 -1 -2 -3 -3 -4 -4 -4 -4 -4 -5 -5 -5 -5 -6 -5 -5 -4 -4 -4 -4 -3 -3 -2 -0 1 2 3 4 5 6 6
8 6 6 4 3 4 3 2 1 1 -1 -1 -2 -3 -3 -4 -4 -4 -5 -5 -5 -5 -5 -5 -6 -6 -6 -6 -6 -6 -6 -5 -5 -4 -3 -3 -2 -1 1 2 4 5 6
7 5 4 2 2 2 1 1 0 -1 -2 -2 -2 -3 -4 -4 -4 -5 -5 -5 -5 -5 -5 -6 -6 -7 -7 -7 -7 -6 -6 -6 -6 -5 -4 -4 -3 -3 -2 -0 1 3 4
6 4 0 -0 0 0 -0 -1 -1 -1 -2 -3 -3 -4 -4 -5 -5 -5 -5 -6 -6 -6 -6 -6 -7 -7 -7 -8 -8 -8 -7 -7 -7 -6 -5 -4 -4 -4 -3 -2 -1 1 2
3 1 -1 -2 -2 -1 -1 -1 -2 -2 -3 -3 -4 -5 -5 -5 -5 -6 -5 -6 -6 -6 -6 -6 -7 -7 -7 -8 -9 -9 -8 -8 -7 -7 -6 -5 -5 -5 -5 -4 -3 -2 -2
4 2 -0 -2 -2 -2 -2 -2 -3 -4 -4 -4 -5 -5 -5 -5 -6 -6 -6 -6 -6 -6 -6 -6 -6 -7 -8 -8 -9 -9 -9 -9 -8 -8 -7 -6 -5 -5 -5 -5 -5 -4 -4
4 2 1 -1 -3 -3 -3 -4 -4 -4 -4 -5 -5 -5 -5 -6 -6 -6 -6 -7 -7 -7 -6 -6 -6 -6 -7 -8 -8 -9 -10 -9 -9 -9 -8 -7 -6 -6 -6 -6 -6 -6 -5
5 4 2 -0 -2 -3 -4 -4 -4 -5 -5 -5 -5 -6 -6 -6 -6 -6 -6 -6 -7 -7 -7 -7 -7 -7 -7 -8 -8 -8 -9 -10 -9 -9 -9 -8 -8 -8 -7 -7 -6 -7 -7
6 4 2 1 -1 -2 -3 -3 -4 -5 -5 -5 -6 -6 -6 -6 -6 -6 -6 -7 -7 -7 -7 -7 -7 -7 -7 -8 -8 -8 -8 -9 -9 -9 -9 -9 -9 -9 -9 -9 -9 -8 -8
5 4 2 1 0 -1 -2 -3 -4 -5 -5 -5 -6 -6 -6 -6 -6 -6 -7 -7 -7 -8 -8 -8 -7 -8 -8 -8 -9 -8 -8 -8 -8 -9 -9 -9 -9 -9 -10 -10 -10 -10 -10
4 3 3 2 1 -0 -1 -2 -4 -4 -5 -5 -6 -6 -6 -6 -6 -6 -6 -7 -7 -8 -8 -8 -8 -7 -7 -8 -9 -8 -8 -8 -8 -8 -8 -9 -9 -9 -10 -10 -10 -10 -10
3 2 2 1 0 -1 -1 -3 -4 -4 -5 -5 -5 -5 -5 -5 -5 -5 -6 -6 -7 -8 -8 -8 -8 -8 -7 -7 -8 -8 -8 -8 -9 -9 -8 -9 -9 -9 -10 -11 -11 -12 -12
2 3 2 1 1 0 -1 -2 -3 -3 -3 -4 -5 -5 -5 -5 -5 -5 -5 -6 -7 -8 -8 -9 -9 -9 -9 -8 -8 -8 -8 -9 -9 -9 -9 -9 -9 -10 -10 -11 -12 -12 -12
-1 1 0 0 0 0 -0 -2 -3 -3 -3 -4 -5 -5 -5 -5 -5 -5 -5 -5 -6 -8 -9 -9 -10 -10 -10 -9 -8 -8 -8 -9 -9 -9 -9 -10 -10 -10 -11 -12 -12 -13 -12
-2 -1 -1 -2 -2 -1 -0 -3 -3 -4 -4 -4 -5 -5 -5 -5 -5 -5 -5 -5 -6 -7 -8 -10 -10 -10 -10 -9 -9 -9 -9 -9 -10 -10 -10 -11 -12 -12 -12 -12 -13 -13 -13
-4 -3 -3 -4 -4 -2 -1 -0 -3 -4 -4 -5 -5 -6 -6 -6 -5 -5 -5 -6 -6 -7 -9 -10 -11 -10 -10 -9 -9 -9 -9 -9 -10 -10 -11 -12 -12 -13 -13 -13 -13 -14 -14
-3 -3 -4 -4 -4 -3 -3 -3 -4 -5 -6 -6 -6 -6 -6 -6 -7 -7 -7 -7 -7 -7 -9 -10 -10 -10 -10 -9 -9 -9 -10 -10 -11 -11 -12 -13 -13 -14 -14 -14 -14 -14 -15
-3 -4 -4 -4 -5 -5 -5 -5 -5 -6 -6 -7 -7 -7 -7 -7 -8 -8 -9 -9 -9 -10 -10 -10 -10 -10 -10 -9 -9 -10 -10 -12 -11 -12 -14 -14 -15 -15 -16 -16 -16 -16 -16

GFSMW_925_temp_153.txt.gz
Temp
9 10 10 9 9 8 8 8 8 7 8 8 7 6 4 4 3 2 1 1 -0 -1 -1 -2 -2 -2 -2 -2 -1 -1 -1 0 1 2 4 4 6 7 10 12 13 13 13
9 8 8 9 9 8 8 7 7 7 7 7 6 5 4 2 2 1 1 -0 -1 -1 -2 -2 -3 -3 -3 -2 -2 -2 -1 -0 1 2 3 4 8 8 9 11 12 13 14
10 8 7 8 8 8 7 7 7 7 6 5 5 5 4 2 1 1 0 -0 -1 -2 -2 -3 -3 -3 -3 -3 -2 -2 -1 -1 -1 1 2 5 7 6 10 11 11 12 12
10 9 7 6 7 7 7 7 6 6 5 4 4 3 1 -0 -2 -2 -1 -1 -2 -3 -3 -3 -4 -4 -4 -3 -3 -2 -2 -2 -1 -0 1 2 3 5 7 9 10 12 12
10 8 7 7 7 7 7 6 6 5 4 3 2 2 1 -1 -1 -1 -1 -2 -3 -3 -4 -4 -5 -5 -4 -4 -3 -3 -2 -2 -1 -1 -0 1 2 3 4 6 8 9 10
9 8 7 7 6 6 6 5 5 4 3 2 1 1 -0 -1 -1 -2 -3 -3 -4 -4 -4 -5 -5 -5 -4 -4 -4 -3 -3 -2 -2 -1 -0 0 2 4 5 6 7 7 8
8 7 5 4 5 5 5 5 4 3 2 1 1 0 -1 -2 -2 -3 -4 -5 -4 -4 -5 -5 -5 -5 -5 -5 -4 -4 -4 -4 -3 -2 -1 -0 1 2 3 3 5 6 7
8 7 6 5 4 4 5 4 4 2 1 1 -0 -1 -1 -2 -3 -4 -4 -4 -4 -5 -5 -5 -6 -6 -6 -5 -5 -5 -5 -5 -4 -3 -2 -1 1 1 2 3 4 6 7
8 7 6 4 4 4 4 4 3 1 0 -0 -1 -1 -2 -3 -3 -4 -4 -4 -4 -5 -5 -5 -5 -6 -5 -5 -5 -6 -6 -6 -5 -4 -4 -3 -2 -1 1 3 4 5 6
8 6 5 4 4 4 3 3 2 1 -0 -1 -1 -2 -3 -4 -4 -4 -5 -4 -5 -4 -4 -5 -6 -5 -6 -6 -5 -6 -6 -6 -6 -5 -4 -4 -3 -2 -1 0 3 4 6
8 5 5 3 3 3 2 1 0 0 -1 -1 -2 -3 -4 -4 -4 -4 -5 -5 -5 -5 -5 -6 -6 -6 -6 -6 -6 -6 -7 -6 -6 -6 -5 -4 -4 -4 -3 -1 1 3 4
7 4 2 1 1 1 0 -0 -0 -1 -1 -2 -3 -4 -4 -4 -4 -4 -5 -5 -5 -5 -6 -6 -7 -7 -7 -7 -7 -7 -7 -8 -7 -6 -5 -5 -5 -5 -4 -3 -2 -1 -0
3 1 -0 -0 -1 -1 -1 -1 -1 -1 -3 -3 -3 -4 -4 -5 -5 -5 -5 -5 -5 -5 -6 -6 -7 -7 -7 -7 -8 -8 -8 -8 -8 -7 -6 -6 -5 -6 -5 -5 -4 -3 -3
5 1 0 -1 -2 -2 -2 -2 -2 -3 -3 -3 -4 -4 -5 -5 -5 -6 -6 -6 -6 -6 -6 -6 -7 -7 -8 -7 -8 -8 -8 -8 -8 -8 -7 -6 -6 -6 -6 -6 -6 -5 -5
4 3 1 -1 -3 -3 -3 -3 -4 -4 -3 -4 -4 -5 -5 -5 -6 -6 -6 -6 -6 -6 -6 -6 -7 -8 -8 -8 -8 -9 -9 -9 -9 -9 -8 -8 -7 -6 -6 -7 -7 -7 -6
6 4 2 -1 -2 -3 -4 -4 -4 -4 -4 -5 -5 -6 -6 -6 -6 -6 -6 -7 -7 -7 -7 -7 -7 -8 -8 -8 -8 -8 -9 -9 -9 -9 -9 -9 -9 -9 -8 -7 -7 -8 -8
6 4 3 1 -1 -2 -2 -3 -4 -4 -5 -5 -6 -6 -6 -6 -6 -6 -7 -7 -7 -7 -7 -8 -8 -8 -8 -8 -8 -8 -9 -9 -9 -9 -10 -9 -9 -10 -11 -11 -10 -9 -9
6 4 3 1 -1 -1 -2 -3 -4 -5 -5 -6 -6 -6 -6 -6 -7 -7 -7 -7 -7 -7 -8 -8 -8 -8 -8 -8 -8 -8 -8 -9 -9 -9 -9 -10 -10 -10 -10 -10 -10 -10 -10
4 3 2 0 -0 -1 -2 -3 -4 -5 -5 -6 -6 -6 -6 -6 -7 -7 -7 -7 -8 -8 -8 -8 -8 -8 -8 -8 -8 -8 -8 -9 -9 -9 -9 -9 -10 -10 -11 -10 -10 -11 -12
4 2 1 1 -0 -2 -2 -3 -5 -5 -5 -5 -5 -6 -6 -6 -6 -7 -7 -8 -8 -8 -8 -8 -8 -8 -7 -7 -8 -8 -9 -9 -9 -9 -9 -9 -10 -10 -11 -11 -11 -12 -12
2 2 1 0 -0 -1 -2 -4 -4 -5 -4 -4 -5 -5 -5 -5 -5 -6 -7 -8 -8 -8 -9 -9 -9 -8 -8 -8 -8 -9 -9 -9 -9 -10 -10 -10 -10 -11 -11 -12 -13 -13 -12
-1 0 -0 -0 -1 -1 -1 -4 -4 -3 -3 -4 -5 -5 -5 -5 -5 -5 -6 -7 -8 -9 -9 -9 -10 -9 -9 -9 -8 -8 -9 -10 -10 -10 -11 -11 -10 -11 -12 -13 -13 -13 -12
-2 -1 -1 -2 -2 -1 -1 -3 -2 -3 -4 -4 -5 -5 -5 -5 -5 -5 -5 -6 -7 -8 -9 -10 -10 -10 -9 -9 -9 -9 -9 -10 -11 -11 -12 -12 -13 -13 -13 -13 -14 -13 -13
-3 -2 -2 -4 -4 -2 -2 -0 -1 -3 -3 -4 -5 -5 -6 -6 -6 -5 -5 -6 -7 -8 -9 -10 -10 -9 -9 -9 -9 -9 -10 -10 -11 -11 -12 -13 -13 -13 -14 -14 -14 -15 -15
-3 -3 -3 -4 -4 -3 -3 -2 -2 -3 -4 -5 -6 -6 -6 -6 -6 -6 -6 -6 -6 -7 -8 -9 -10 -9 -9 -9 -10 -10 -11 -11 -12 -12 -12 -13 -14 -14 -15 -15 -15 -15 -16
-3 -3 -3 -3 -4 -4 -3 -3 -3 -4 -5 -6 -7 -7 -6 -7 -7 -7 -8 -8 -7 -8 -9 -10 -10 -9 -9 -9 -9 -10 -11 -13 -12 -12 -14 -15 -15 -16 -16 -16 -16 -16 -17

GFSMW_925_temp_156.txt.gz
Temp
8 8 8 8 8 8 8 8 8 8 8 7 6 6 5 4 4 3 2 1 0 0 -1 -1 -2 -2 -3 -3 -2 -2 -2 -1 -0 0 1 2 3 6 5 5 7 9 12
7 7 7 7 8 7 8 8 7 7 7 7 6 5 4 4 2 1 0 0 -0 -1 -2 -2 -3 -3 -3 -4 -3 -3 -2 -1 -1 -0 0 4 6 4 8 8 7 8 9
8 7 6 7 7 7 7 7 6 6 6 6 6 6 5 3 2 0 -0 -1 -0 -1 -2 -2 -3 -4 -4 -4 -3 -3 -3 -2 -1 -1 -0 2 3 3 6 7 8 8 9
9 8 6 6 6 7 7 6 6 5 6 6 7 5 3 1 -1 -1 -1 -1 -1 -2 -2 -3 -4 -5 -4 -4 -4 -3 -3 -2 -2 -1 -1 -0 0 2 4 5 6 7 9
10 8 7 6 7 6 6 5 5 6 5 4 3 3 2 1 -0 -0 -0 -0 -1 -2 -3 -4 -5 -5 -5 -5 -5 -3 -3 -3 -2 -2 -2 -1 0 1 2 4 5 6 8
10 9 7 6 6 6 5 4 5 4 2 2 3 3 2 0 -0 -1 -1 -2 -3 -3 -4 -4 -5 -6 -5 -5 -5 -4 -4 -4 -4 -3 -3 -1 0 1 2 3 5 6 7
10 7 6 5 4 4 4 4 3 2 2 3 3 2 1 -1 -1 -2 -2 -3 -4 -3 -4 -4 -5 -5 -5 -4 -4 -5 -6 -5 -5 -4 -3 -2 -1 0 1 2 3 4 6
9 7 7 5 3 4 3 3 2 1 1 3 2 1 -0 -1 -1 -2 -3 -3 -4 -4 -4 -4 -5 -5 -5 -5 -4 -5 -6 -6 -6 -5 -4 -3 -2 -1 0 1 2 4 6
8 8 6 5 4 3 3 3 2 1 1 1 1 0 -1 -1 -2 -3 -3 -4 -4 -4 -5 -4 -5 -5 -5 -5 -4 -5 -5 -6 -6 -5 -5 -4 -3 -2 -1 -0 1 3 5
8 7 6 5 4 3 3 2 2 2 1 0 0 -1 -2 -2 -3 -3 -3 -4 -5 -5 -4 -5 -5 -5 -5 -5 -5 -5 -5 -6 -6 -6 -5 -5 -4 -4 -3 -1 0 3 4
7 6 5 4 3 3 2 2 1 0 0 0 -1 -2 -3 -3 -3 -3 -4 -5 -5 -5 -5 -5 -5 -6 -5 -6 -6 -6 -6 -6 -7 -7 -6 -5 -5 -5 -4 -2 -1 1 2
7 4 2 1 0 1 1 1 0 0 -0 -1 -2 -3 -3 -4 -4 -4 -4 -5 -5 -5 -6 -6 -6 -6 -6 -6 -7 -7 -7 -7 -8 -7 -7 -6 -6 -6 -5 -4 -3 -2 -0
3 1 1 1 -1 -1 -0 -0 -1 -0 -1 -2 -3 -4 -4 -4 -4 -4 -5 -5 -6 -6 -6 -7 -7 -7 -6 -7 -7 -8 -8 -8 -8 -8 -7 -6 -6 -7 -6 -5 -5 -4 -3
4 2 1 -0 -2 -2 -1 -1 -1 -1 -2 -3 -3 -4 -5 -5 -4 -5 -5 -6 -6 -6 -6 -7 -7 -7 -7 -7 -7 -7 -8 -8 -9 -9 -8 -7 -7 -6 -7 -7 -6 -5 -5
4 3 1 -1 -2 -2 -2 -2 -2 -3 -3 -3 -4 -5 -5 -5 -5 -5 -6 -6 -6 -6 -7 -7 -7 -8 -8 -8 -7 -7 -8 -8 -9 -9 -9 -9 -8 -7 -7 -8 -8 -7 -7
7 4 2 0 -1 -2 -3 -3 -3 -3 -4 -4 -5 -5 -5 -5 -6 -6 -6 -6 -7 -7 -7 -7 -8 -8 -8 -8 -9 -7 -8 -8 -9 -9 -9 -10 -10 -10 -9 -8 -8 -8 -8
7 5 3 1 0 -2 -3 -3 -3 -4 -4 -5 -5 -6 -5 -6 -6 -6 -6 -7 -7 -7 -8 -8 -8 -8 -8 -8 -9 -8 -9 -9 -9 -9 -10 -10 -10 -10 -11 -11 -10 -9 -10
6 4 3 1 -1 -2 -2 -2 -3 -4 -5 -5 -6 -6 -6 -6 -6 -7 -7 -7 -8 -8 -8 -8 -8 -8 -8 -8 -9 -8 -9 -9 -9 -9 -10 -10 -10 -10 -10 -10 -10 -11 -11
4 3 2 0 -2 -2 -2 -2 -4 -4 -5 -6 -6 -6 -6 -7 -7 -7 -7 -8 -8 -8 -8 -8 -8 -8 -7 -8 -8 -8 -9 -9 -9 -9 -9 -10 -11 -11 -10 -10 -11 -12 -12
3 1 0 -1 -2 -3 -2 -3 -5 -5 -5 -5 -5 -6 -6 -7 -7 -7 -7 -8 -8 -8 -8 -8 -8 -8 -8 -7 -9 -8 -9 -10 -10 -10 -10 -9 -10 -11 -12 -11 -12 -13 -13
1 0 -0 -2 -2 -2 -2 -4 -5 -5 -3 -4 -5 -6 -6 -6 -6 -7 -7 -8 -8 -8 -8 -8 -8 -8 -8 -7 -8 -9 -9 -10 -10 -10 -10 -10 -10 -11 -12 -13 -13 -14 -12
-1 -0 -2 -3 -3 -2 -2 -4 -4 -2 -3 -4 -5 -5 -6 -6 -6 -6 -7 -8 -8 -8 -9 -9 -9 -9 -8 -8 -8 -9 -10 -10 -11 -11 -11 -11 -11 -11 -12 -13 -14 -12 -12
-2 -1 -2 -3 -3 -2 -1 -3 -3 -3 -4 -4 -5 -5 -5 -6 -6 -6 -7 -8 -8 -8 -9 -9 -9 -9 -9 -9 -9 -9 -10 -11 -11 -12 -12 -13 -14 -13 -14 -14 -14 -13 -13
-3 -2 -3 -5 -5 -3 -2 0 -1 -2 -3 -4 -5 -5 -6 -6 -6 -6 -6 -7 -7 -8 -9 -9 -9 -9 -9 -9 -9 -10 -10 -10 -11 -11 -12 -13 -13 -13 -13 -13 -14 -14 -15
-3 -2 -3 -4 -5 -3 -2 -1 -1 -2 -4 -4 -5 -6 -6 -6 -6 -6 -6 -6 -6 -6 -7 -8 -9 -9 -9 -10 -10 -10 -11 -11 -12 -12 -13 -13 -14 -14 -15 -15 -15 -15 -15
-3 -3 -3 -3 -4 -4 -3 -2 -2 -3 -4 -5 -6 -7 -6 -6 -6 -7 -7 -7 -7 -7 -8 -9 -9 -9 -9 -10 -10 -11 -12 -13 -12 -12 -14 -15 -15 -16 -16 -16 -17 -17 -17

GFSMW_925_temp_159.txt.gz
Temp
12 9 8 7 7 7 8 8 8 8 8 6 5 4 4 2 2 2 3 2 2 1 -1 -1 -1 -2 -2 -2 -1 -1 -1 0 1 1 2 4 6 6 6 7 7 8 8
11 9 8 7 7 7 7 7 7 7 7 8 7 5 3 2 3 2 2 2 1 -1 -2 -2 -2 -3 -2 -2 -2 -1 -1 -0 -1 -0 1 5 7 6 5 6 6 6 8
11 10 8 7 7 6 6 7 7 7 7 7 6 5 5 3 2 1 0 -0 -1 -3 -3 -3 -3 -3 -3 -3 -2 -2 -2 -2 -1 -1 -1 2 4 2 7 6 5 6 6
12 11 9 8 7 6 6 6 7 6 6 5 5 6 5 4 1 -1 -1 -2 -2 -3 -3 -3 -3 -3 -3 -3 -3 -3 -3 -3 -2 -2 -1 -1 -1 2 3 6 5 4 6
12 11 10 8 7 6 5 5 5 5 4 5 6 6 3 1 -1 -1 -1 -1 -2 -3 -3 -4 -3 -3 -3 -4 -4 -4 -3 -3 -3 -3 -2 -1 -1 0 2 4 5 3 4
12 11 10 8 7 5 4 4 4 3 4 5 5 3 1 0 1 -0 -0 -1 -2 -3 -4 -4 -4 -4 -4 -5 -4 -4 -4 -4 -4 -4 -3 -2 -1 -0 1 2 2 3 3
12 11 9 7 5 4 3 2 2 2 3 3 2 0 1 2 1 -1 -1 -2 -2 -3 -4 -4 -4 -4 -5 -5 -5 -5 -4 -5 -5 -5 -4 -3 -3 -2 -1 1 2 3 4
12 11 9 8 5 4 3 3 2 1 1 1 -1 0 2 1 -1 -2 -3 -3 -4 -4 -4 -4 -5 -5 -5 -5 -5 -5 -4 -5 -5 -5 -4 -4 -3 -3 -2 -1 1 3 5
12 11 10 8 6 4 3 3 2 1 1 -1 -0 1 1 -0 -1 -2 -3 -4 -4 -5 -4 -5 -5 -6 -6 -6 -6 -5 -5 -5 -5 -5 -5 -4 -4 -3 -3 -2 -1 1 4
12 10 9 7 6 4 3 2 1 1 -0 -1 0 -0 -2 -0 -1 -3 -3 -4 -4 -4 -4 -6 -6 -6 -6 -6 -6 -5 -6 -5 -5 -5 -5 -4 -4 -4 -3 -2 -1 -0 2
10 9 8 6 5 4 2 1 1 0 -1 -1 0 -2 -1 -1 -2 -3 -3 -4 -4 -5 -5 -6 -6 -6 -6 -7 -7 -6 -7 -6 -6 -6 -6 -5 -5 -5 -4 -3 -2 -1 -0
10 8 4 5 3 1 1 1 0 -1 -1 0 -2 -2 -1 -2 -3 -3 -4 -4 -5 -6 -6 -6 -6 -7 -7 -7 -7 -7 -7 -7 -7 -7 -6 -6 -5 -5 -5 -4 -4 -3 -2
8 7 4 2 1 -0 -0 0 -0 0 0 -1 -2 -2 -2 -3 -3 -4 -5 -5 -5 -6 -6 -6 -7 -7 -7 -7 -8 -8 -8 -8 -8 -7 -7 -7 -6 -5 -6 -6 -5 -5 -4
6 6 5 4 1 -0 -1 -1 -1 -0 -0 -1 -2 -2 -3 -3 -4 -4 -5 -6 -6 -6 -6 -6 -7 -7 -7 -7 -8 -8 -8 -8 -8 -8 -8 -8 -7 -7 -6 -6 -7 -6 -5
7 6 5 4 2 0 -1 -2 -1 -1 -1 -2 -3 -3 -4 -4 -5 -6 -7 -6 -6 -7 -6 -6 -6 -6 -7 -8 -8 -8 -8 -8 -8 -8 -8 -8 -8 -8 -7 -7 -8 -7 -7
8 6 5 3 2 1 -1 -2 -3 -2 -2 -3 -3 -4 -5 -5 -6 -7 -7 -7 -7 -6 -6 -7 -7 -7 -7 -8 -8 -8 -9 -9 -8 -8 -8 -8 -9 -9 -10 -9 -9 -9 -8
9 7 5 4 3 1 -0 -1 -3 -4 -4 -4 -4 -5 -5 -6 -6 -6 -6 -6 -7 -7 -7 -7 -7 -8 -7 -8 -9 -8 -9 -9 -10 -10 -9 -9 -9 -9 -9 -11 -11 -10 -10
11 9 7 4 2 1 -1 -2 -3 -4 -5 -5 -5 -6 -6 -6 -6 -6 -6 -7 -7 -7 -8 -7 -8 -7 -8 -8 -9 -8 -9 -10 -10 -10 -10 -10 -10 -11 -11 -11 -12 -13 -11
8 6 4 3 2 -0 -1 -2 -3 -3 -4 -5 -6 -7 -6 -6 -6 -7 -7 -7 -7 -8 -7 -8 -7 -8 -8 -8 -8 -9 -9 -9 -10 -9 -10 -10 -11 -11 -10 -10 -11 -12 -13
4 3 2 1 -1 -1 -2 -3 -3 -4 -4 -4 -5 -6 -7 -7 -7 -7 -7 -7 -7 -8 -8 -8 -7 -8 -8 -8 -8 -9 -9 -9 -9 -9 -9 -10 -10 -11 -11 -12 -12 -13 -14
0 -0 -1 -1 -3 -3 -3 -4 -5 -5 -4 -5 -5 -6 -6 -7 -7 -7 -8 -8 -8 -8 -8 -8 -8 -8 -8 -8 -9 -9 -10 -10 -10 -10 -9 -10 -11 -11 -12 -13 -13 -13 -14
-1 -1 -2 -3 -4 -3 -3 -5 -5 -4 -3 -4 -6 -6 -6 -7 -7 -8 -8 -8 -8 -8 -8 -8 -8 -8 -8 -8 -8 -9 -10 -10 -10 -11 -11 -11 -12 -12 -13 -13 -13 -11 -13
-0 -2 -3 -4 -5 -4 -3 -4 -4 -3 -4 -5 -5 -6 -7 -6 -7 -7 -8 -7 -8 -7 -8 -8 -8 -8 -9 -8 -9 -9 -11 -10 -11 -12 -13 -13 -13 -13 -14 -14 -13 -13 -14
-0 -2 -3 -4 -5 -4 -3 -2 -2 -3 -4 -5 -6 -6 -6 -6 -7 -7 -7 -7 -7 -7 -7 -8 -8 -9 -9 -9 -10 -10 -11 -11 -11 -12 -12 -13 -13 -13 -14 -14 -14 -15 -15
-1 -1 -1 -2 -4 -5 -3 -2 -2 -3 -5 -6 -6 -6 -6 -6 -7 -6 -6 -6 -7 -7 -7 -8 -8 -9 -9 -10 -10 -10 -11 -11 -12 -12 -13 -13 -13 -13 -14 -14 -15 -15 -15
-0 -0 -1 -1 -3 -4 -4 -4 -4 -4 -5 -5 -5 -5 -5 -6 -6 -7 -7 -7 -7 -6 -7 -7 -8 -9 -9 -10 -11 -11 -12 -12 -12 -13 -14 -15 -15 -14 -14 -15 -15 -16 -16

GFSMW_925_temp_165.txt.gz
Temp
26 23 21 20 19 17 15 14 13 12 12 12 13 13 12 11 10 8 7 7 6 6 7 7 7 6 7 6 6 6 6 7 7 7 7 9 12 12 11 9 11 10 9
26 23 20 19 18 17 15 14 13 12 13 14 14 14 12 11 10 9 7 6 6 5 6 5 6 6 6 6 5 5 5 6 5 5 6 8 11 9 7 10 10 9 7
26 23 20 18 17 16 15 14 13 12 13 14 12 12 11 9 9 9 8 6 5 5 5 5 5 5 6 6 5 4 4 4 5 3 3 4 6 3 8 7 6 7 7
26 24 20 18 17 16 15 14 14 13 13 12 12 12 13 13 12 10 8 7 5 4 4 4 4 4 5 4 4 3 3 3 3 3 2 1 1 2 3 6 4 5 5
26 24 21 19 17 16 15 14 13 13 12 12 13 12 14 12 10 9 7 7 5 4 4 4 4 4 4 3 3 3 3 3 2 1 0 -0 0 1 1 2 3 3 4
26 24 21 19 17 16 15 14 13 13 11 11 12 12 12 11 10 9 8 8 7 6 4 4 3 3 3 3 3 3 3 2 1 -1 -1 -1 -1 -0 -0 0 1 2 3
25 24 22 19 17 16 14 13 13 12 11 10 10 10 9 9 9 8 9 8 7 6 4 3 3 3 2 2 2 3 3 2 -0 -1 -2 -1 -1 -1 -1 -1 1 1 2
23 23 21 19 17 16 13 13 13 11 10 9 9 9 8 8 8 8 7 7 6 5 3 2 2 2 2 2 2 3 2 2 1 -1 -2 -2 -1 -1 -1 -1 -1 1 3
23 22 21 18 17 15 13 12 12 11 9 9 8 7 7 7 7 6 6 5 4 3 2 2 2 1 1 1 2 2 1 1 1 0 -2 -2 -2 -2 -1 -1 -1 -0 1
22 21 20 17 16 14 13 11 11 10 8 8 7 6 6 5 5 5 4 3 2 1 1 1 1 0 0 0 1 1 -0 0 0 -0 -2 -3 -2 -2 -2 -2 -1 -1 -1
21 20 19 17 15 13 12 10 10 9 7 6 6 5 4 4 3 3 2 1 1 1 0 0 -0 -0 -1 -1 -1 -1 -1 -1 -1 -1 -2 -3 -3 -3 -3 -2 -2 -1 -2
20 19 16 16 15 13 10 9 9 7 6 6 5 4 2 2 2 2 1 1 1 0 -0 -1 -0 -1 -1 -1 -2 -2 -2 -2 -2 -2 -3 -3 -4 -4 -3 -3 -3 -2 -2
20 18 15 13 6 9 8 8 7 6 5 4 3 2 1 2 1 1 1 0 0 -0 -1 -1 -2 -2 -2 -2 -2 -2 -3 -3 -3 -3 -4 -5 -5 -5 -5 -4 -3 -3 -2
18 17 15 12 9 8 5 5 4 3 3 3 2 1 1 -0 -0 -0 0 0 0 0 -0 -1 -2 -2 -2 -2 -2 -2 -2 -3 -4 -4 -5 -6 -6 -6 -6 -5 -5 -3 -2
17 16 14 12 9 6 3 2 1 2 2 1 1 -1 -1 -2 -1 -1 0 1 1 0 0 0 -0 -1 -3 -5 -3 -3 -3 -3 -3 -3 -3 -6 -6 -7 -7 -7 -7 -5 -3
16 16 14 12 10 7 4 3 0 -1 1 -0 -1 -2 -2 -2 -1 -0 0 -0 -1 -2 -1 -1 -2 -3 -4 -7 -5 -3 -4 -4 -3 -4 -4 -5 -6 -5 -7 -7 -8 -8 -6
17 15 13 12 10 7 4 4 2 0 -1 -2 -2 -2 -3 -3 -2 -1 -0 -3 -3 -4 -4 -4 -5 -5 -7 -7 -7 -6 -5 -6 -6 -6 -6 -6 -7 -6 -5 -7 -8 -9 -9
18 15 14 12 10 8 6 5 3 2 1 -1 -3 -3 -3 -4 -3 -2 -3 -4 -5 -5 -5 -5 -5 -6 -7 -7 -7 -6 -6 -6 -7 -7 -7 -8 -9 -9 -8 -7 -8 -9 -9
17 15 14 12 10 9 8 7 4 3 2 1 -1 -3 -4 -4 -4 -5 -5 -5 -5 -5 -5 -5 -5 -5 -7 -7 -7 -6 -5 -6 -7 -8 -9 -9 -9 -9 -8 -9 -9 -8 -8
16 15 14 12 10 9 7 6 5 4 3 2 0 -2 -3 -4 -5 -5 -5 -5 -5 -5 -5 -6 -6 -6 -7 -7 -6 -6 -4 -5 -5 -6 -8 -10 -10 -10 -10 -9 -8 -8 -8
6 13 12 10 7 7 6 3 3 3 3 2 1 -1 -2 -2 -4 -4 -3 -4 -4 -4 -4 -6 -6 -6 -6 -8 -7 -6 -5 -4 -4 -5 -7 -9 -10 -10 -10 -10 -10 -10 -8
4 4 3 3 4 5 4 2 2 2 2 1 0 -1 -1 -2 -3 -3 -3 -2 -2 -3 -3 -3 -4 -5 -6 -7 -8 -7 -7 -6 -5 -6 -8 -10 -11 -11 -11 -11 -10 -9 -8
5 2 1 1 1 2 1 1 -1 1 0 -0 -2 -3 -2 -3 -3 -4 -3 -2 -2 -2 -2 -2 -2 -3 -5 -7 -9 -9 -8 -8 -7 -8 -9 -10 -11 -10 -10 -11 -10 -9 -8
6 2 0 -0 -1 -1 -0 -1 -2 -1 -2 -3 -3 -4 -4 -4 -4 -4 -4 -2 -2 -2 -2 -2 -2 -3 -4 -6 -7 -8 -9 -9 -9 -9 -10 -10 -10 -9 -9 -8 -9 -9 -9
6 4 3 2 -0 -1 -2 -3 -3 -3 -2 -3 -4 -3 -3 -4 -4 -3 -3 -2 -3 -3 -2 -3 -3 -3 -4 -5 -6 -7 -7 -7 -8 -9 -9 -8 -7 -7 -7 -8 -9 -9 -9
7 7 5 3 1 0 -2 -2 -2 -1 -1 -2 -2 -2 -2 -2 -3 -3 -3 -4 -4 -5 -4 -4 -4 -5 -5 -6 -6 -7 -8 -9 -9 -8 -7 -7 -7 -7 -7 -8 -8 -9 -10

GFSMW_925_temp_168.txt.gz
Temp
27 24 24 22 21 17 16 15 14 13 12 12 12 11 11 10 9 8 8 7 7 7 7 7 7 7 7 7 6 6 5 6 5 5 5 8 9 9 10 9 8 7 6
27 25 23 22 20 17 16 15 14 12 12 12 13 13 11 10 9 8 7 7 7 6 6 6 6 6 6 6 5 4 4 5 4 3 4 4 8 9 7 7 6 5 4
27 25 22 21 19 17 16 15 13 12 13 14 14 12 11 10 9 8 7 6 6 6 5 5 5 5 6 5 5 4 4 3 4 3 2 2 2 2 5 5 5 3 3
27 25 22 20 19 17 16 15 14 13 14 14 13 12 10 10 10 10 8 6 6 5 5 5 5 5 5 4 4 3 3 3 3 2 1 1 1 1 1 3 2 2 2
27 25 21 20 19 17 16 15 14 13 14 13 12 12 13 11 10 9 8 6 5 5 4 4 4 4 4 4 3 3 3 2 1 -0 -0 0 -0 1 0 0 1 1 1
27 25 22 20 18 17 15 15 14 13 13 13 13 13 12 11 9 8 7 7 6 5 4 4 4 4 3 3 3 3 3 2 0 -1 -1 -1 -1 -1 -1 -0 0 1 1
27 25 21 19 18 16 15 14 13 13 12 13 13 13 12 10 9 8 8 8 7 6 4 4 3 3 2 3 3 3 3 2 1 -1 -1 -1 -1 -1 -1 -1 -0 0 1
25 24 20 19 17 16 15 14 13 13 12 12 11 11 10 10 9 9 8 8 7 5 3 3 3 2 2 2 3 3 2 2 1 -1 -2 -2 -2 -2 -2 -1 -1 -0 1
24 23 21 18 17 16 14 13 13 12 11 10 9 9 9 9 8 8 7 6 5 3 2 2 2 2 1 2 3 2 1 1 0 -1 -2 -2 -2 -2 -2 -2 -2 -1 1
22 21 19 17 17 15 13 12 13 11 10 9 8 8 8 7 7 6 5 4 3 3 2 2 1 1 1 1 1 0 -0 -0 -1 -1 -2 -3 -3 -3 -3 -2 -2 -1 -1
22 20 19 18 17 14 12 12 12 10 9 8 7 7 6 6 5 5 4 3 2 1 1 1 0 0 -0 -0 -0 -0 -1 -1 -2 -2 -3 -3 -4 -4 -3 -3 -2 -2 -2
21 19 15 16 15 13 12 11 10 9 8 7 6 5 5 5 3 3 2 2 1 1 0 0 0 -0 -1 -1 -1 -2 -2 -2 -3 -3 -4 -5 -5 -5 -4 -4 -3 -3 -2
21 19 16 11 7 10 10 10 9 8 7 6 4 4 4 3 2 2 2 1 1 0 -0 -1 -1 -1 -1 -1 -1 -2 -2 -3 -3 -4 -5 -6 -6 -6 -6 -5 -4 -3 -2
20 18 15 12 11 9 9 9 6 6 6 4 3 2 2 2 2 1 1 1 0 0 -1 -1 -2 -2 -2 -2 -2 -2 -2 -3 -3 -4 -5 -6 -6 -7 -7 -7 -5 -4 -3
19 18 15 12 11 7 6 5 5 5 4 3 2 1 1 2 1 1 1 1 1 1 0 -1 -1 -2 -3 -3 -2 -2 -2 -2 -3 -3 -4 -5 -6 -6 -7 -8 -7 -5 -5
18 17 14 11 9 6 5 4 3 3 4 2 1 0 1 0 0 1 1 1 1 0 0 0 -1 -3 -5 -4 -3 -4 -4 -3 -4 -4 -5 -6 -6 -6 -7 -7 -8 -8 -7
18 17 15 11 9 6 5 3 2 2 1 -0 -1 -1 -1 -0 0 1 1 0 -1 -1 -1 -2 -4 -5 -6 -5 -5 -5 -5 -6 -6 -6 -6 -7 -7 -6 -6 -7 -8 -9 -9
18 16 15 12 9 6 5 3 2 1 -0 -2 -2 -2 -2 -1 -0 0 -0 -1 -2 -3 -3 -4 -5 -6 -6 -6 -6 -6 -6 -7 -7 -7 -8 -8 -8 -8 -7 -8 -8 -8 -8
17 15 15 13 10 7 6 4 2 1 0 -1 -2 -2 -2 -2 -1 -1 -2 -3 -4 -4 -4 -5 -5 -6 -6 -6 -6 -5 -6 -6 -7 -8 -8 -8 -9 -8 -8 -8 -8 -8 -8
13 13 13 12 10 7 6 5 3 3 2 0 -1 -3 -3 -3 -3 -3 -4 -4 -4 -4 -4 -5 -5 -6 -6 -6 -6 -5 -5 -5 -6 -8 -8 -9 -9 -9 -9 -8 -8 -8 -7
4 13 12 11 8 8 6 4 4 3 3 1 -1 -2 -3 -3 -3 -3 -4 -4 -4 -5 -5 -5 -6 -6 -6 -6 -6 -5 -4 -4 -5 -6 -8 -10 -10 -10 -10 -9 -9 -8 -7
4 5 4 5 7 7 6 3 3 4 3 1 -1 -3 -3 -3 -4 -3 -4 -3 -3 -4 -5 -5 -6 -5 -6 -7 -6 -6 -5 -5 -5 -6 -8 -9 -10 -10 -10 -9 -9 -8 -7
5 3 2 2 4 5 4 2 0 3 1 -0 -2 -2 -2 -3 -3 -3 -3 -2 -2 -3 -3 -4 -4 -5 -6 -7 -7 -7 -6 -6 -6 -7 -8 -9 -9 -9 -9 -9 -9 -8 -8
6 2 2 2 1 1 2 1 1 -0 -1 -2 -2 -2 -3 -3 -3 -3 -2 -2 -2 -2 -2 -2 -2 -5 -6 -7 -8 -8 -7 -7 -7 -8 -8 -9 -9 -8 -8 -8 -9 -9 -8
6 4 3 1 0 0 -0 0 -1 -1 -2 -2 -3 -3 -3 -3 -4 -3 -3 -2 -2 -2 -2 -2 -2 -4 -5 -6 -6 -7 -8 -8 -8 -9 -8 -8 -8 -7 -7 -8 -8 -9 -9
6 5 3 2 1 -1 -1 -2 -1 -1 -2 -2 -3 -3 -3 -3 -3 -3 -3 -2 -2 -2 -2 -2 -2 -3 -4 -5 -6 -7 -7 -7 -8 -8 -7 -7 -7 -7 -7 -7 -8 -9 -10

GFSMW_925_temp_171.txt.gz
Temp
22 20 19 19 17 16 15 15 14 13 13 12 12 12 11 10 10 9 8 8 8 8 8 7 7 7 6 6 5 5 5 4 4 5 6 8 7 8 6 5 5 5 4
22 20 20 20 16 15 14 14 13 13 12 12 11 11 10 10 9 8 8 8 7 8 7 7 7 6 6 5 5 4 4 3 2 2 2 1 5 7 5 4 4 3 3
22 21 20 19 16 15 14 13 13 12 12 12 11 11 10 9 7 7 7 6 7 7 7 6 6 5 5 4 4 3 3 2 2 1 0 -0 0 1 3 3 3 2 1
24 21 20 18 15 14 14 13 13 12 12 12 11 10 9 8 7 7 6 6 6 6 6 6 5 5 5 4 4 3 3 2 0 0 0 0 0 -1 0 2 2 0 1
23 21 20 18 16 14 14 12 12 12 12 12 11 10 9 9 8 7 6 6 5 6 5 5 5 4 4 3 3 3 2 2 0 -1 -1 -0 0 0 -0 0 1 0 1
23 22 20 18 15 15 14 12 12 12 12 12 12 12 10 9 7 7 6 5 5 5 5 4 4 4 3 3 3 3 2 1 0 -1 -1 -1 -1 -1 -1 -0 -0 0 0
23 23 19 17 15 14 14 12 12 12 12 12 12 12 10 9 9 7 7 5 5 5 4 4 4 3 3 3 3 3 2 1 0 -1 -1 -1 -1 -2 -2 -1 -0 -0 1
23 21 18 17 15 14 14 13 12 12 12 12 12 11 10 10 9 8 7 6 5 5 4 3 3 3 3 3 2 2 1 1 -0 -1 -2 -2 -2 -2 -2 -2 -1 -0 1
21 19 18 16 15 14 13 13 12 11 12 12 12 11 10 10 8 8 7 6 5 5 3 3 2 2 2 2 2 2 1 0 -1 -2 -2 -3 -3 -3 -2 -2 -2 -1 -0
19 18 17 15 14 13 13 12 11 11 11 11 11 10 9 9 8 8 7 6 5 4 3 2 2 1 1 1 1 1 -0 -1 -2 -2 -3 -4 -4 -3 -3 -3 -2 -2 -1
16 17 16 16 14 13 12 12 10 9 9 10 9 9 8 8 7 6 5 5 4 2 2 2 1 1 1 0 0 -1 -1 -2 -3 -3 -4 -5 -4 -4 -4 -3 -2 -2 -2
15 15 12 13 11 10 11 9 9 8 8 9 8 8 7 6 6 5 4 4 2 2 2 1 1 -0 -0 -0 -1 -1 -2 -3 -3 -4 -4 -5 -5 -5 -4 -4 -3 -2 -2
14 13 11 8 7 9 9 8 7 7 7 7 7 6 6 5 4 4 3 2 2 2 1 0 -0 -1 -1 -1 -1 -2 -2 -3 -4 -4 -5 -5 -5 -5 -5 -4 -3 -3 -3
14 13 10 9 9 9 7 6 6 6 6 6 6 6 4 4 4 2 2 1 2 1 0 -0 -1 -1 -1 -1 -2 -2 -3 -3 -4 -4 -5 -6 -6 -6 -6 -5 -5 -4 -4
14 12 10 9 9 7 5 5 5 5 5 5 5 4 3 3 1 1 1 1 1 0 -0 -1 -2 -2 -2 -2 -2 -2 -3 -3 -4 -5 -5 -6 -6 -6 -7 -7 -6 -5 -6
15 13 11 10 8 7 5 4 3 3 5 3 2 3 2 0 0 1 1 1 0 0 -0 -2 -2 -2 -2 -3 -3 -3 -3 -4 -4 -5 -5 -6 -6 -7 -7 -8 -8 -8 -7
15 13 11 10 8 7 4 4 3 2 3 2 1 1 1 -0 0 1 0 1 0 0 -1 -2 -2 -2 -4 -4 -4 -4 -4 -4 -5 -5 -5 -6 -6 -7 -7 -8 -8 -8 -8
15 14 11 9 7 6 4 3 2 2 1 0 -1 0 -0 -0 0 1 1 0 0 -0 -1 -2 -2 -4 -5 -5 -6 -6 -5 -6 -6 -6 -6 -7 -7 -7 -7 -8 -8 -8 -8
13 12 12 9 6 5 3 2 2 1 0 -1 -0 -0 -1 -1 0 -0 -0 -0 -1 -2 -2 -3 -4 -5 -6 -5 -6 -6 -6 -6 -7 -7 -7 -7 -8 -7 -8 -8 -8 -8 -8
10 10 9 7 6 5 3 2 2 1 0 -1 -2 -2 -1 -1 -1 -1 -1 -1 -2 -3 -4 -5 -5 -5 -6 -6 -6 -6 -6 -7 -8 -8 -9 -9 -9 -9 -8 -8 -8 -7 -8
2 10 9 7 5 5 3 2 1 0 -1 -2 -1 -1 -2 -2 -2 -2 -2 -3 -4 -4 -5 -5 -6 -6 -6 -6 -6 -6 -6 -5 -7 -8 -8 -9 -9 -9 -8 -8 -8 -8 -7
3 4 6 5 4 4 2 1 1 0 -0 -0 -1 -2 -2 -2 -3 -3 -3 -4 -5 -5 -5 -5 -6 -6 -6 -6 -6 -5 -5 -5 -6 -7 -8 -9 -9 -9 -8 -8 -8 -7 -7
3 3 2 2 3 3 2 1 0 -0 -1 -1 -1 -3 -3 -4 -4 -4 -4 -5 -5 -5 -5 -6 -6 -6 -6 -6 -6 -6 -5 -5 -6 -6 -7 -8 -9 -9 -9 -8 -8 -8 -8
3 2 2 2 1 2 2 1 0 0 -1 -2 -3 -4 -4 -4 -4 -4 -4 -4 -5 -5 -5 -6 -6 -6 -7 -7 -6 -6 -6 -6 -6 -7 -8 -8 -9 -8 -8 -9 -8 -8 -8
2 3 2 1 0 1 0 1 1 -0 -2 -3 -3 -4 -4 -4 -4 -4 -4 -4 -4 -4 -4 -4 -5 -6 -8 -6 -6 -6 -7 -7 -7 -7 -8 -8 -8 -8 -8 -8 -9 -9 -9
3 2 1 1 -1 -1 -0 -0 -0 -0 -2 -3 -3 -3 -3 -4 -4 -3 -3 -2 -2 -2 -2 -2 -3 -4 -3 -5 -6 -6 -7 -8 -8 -8 -8 -8 -8 -7 -8 -8 -9 -9 -10